Location: Newark
(23.3970°S, 47.6010°W)
Time: 14:04:04
(UTC+00:00)

Tiros 1 despin weight - Pass Details

Date: 19 February 2020
Orbit: 593 x 642 km, 48.2° (Epoch: 31 March)

Event Time Altitude Azimuth Distance (km) Brightness Sun altitude
Rises 23:28:28 0° 220° (SW) 2,954 ? -22.8°
Reaches altitude 10° 23:30:52 10° 215° (SW) 2,036 ? -23.3°
Enters shadow 23:35:15 55° 149° (SSE) 764 ? -24.2°
Maximum altitude 23:35:28 56° 137° (SE) 758 - -24.3°
Drops below altitude 10° 23:39:59 10° 58° (ENE) 1,992 - -25.2°
Sets 23:42:18 0° 54° (NE) 2,884 - -25.7°
